Theta_e
340 341 343 344 343 342 341 340 342 343 339 338 340 339 339 339 340 338 335 335 336 339 337 337 336 336 336 336 337 337 336 336 337 337 336 336 336 336 336 337 338 338 337 336 335 334 334 333 332 331 328 334
337 339 341 340 340 341 342 341 341 340 341 342 342 340 339 339 339 339 336 336 337 337 339 339 337 335 335 338 339 338 337 337 337 336 336 335 335 335 335 335 336 337 336 335 334 333 332 332 330 330 329 334
342 334 337 338 338 340 340 339 339 338 336 338 337 336 334 334 334 334 335 336 336 335 336 336 337 338 337 336 335 336 336 336 336 335 335 335 335 334 335 335 335 335 333 332 331 331 331 329 329 327 332 334
343 333 331 335 336 336 336 336 335 333 332 331 330 330 330 330 333 330 332 325 332 332 333 331 332 335 336 334 334 335 335 335 335 335 335 334 334 334 334 335 333 332 332 331 329 329 328 328 325 335 334 334
342 341 330 330 328 330 332 332 331 329 324 323 324 327 326 329 334 335 333 335 332 328 336 324 326 334 335 335 335 336 334 335 334 335 334 334 333 335 332 329 327 328 329 328 328 327 326 321 333 334 333 333
343 343 337 340 340 340 335 329 327 334 338 336 337 327 333 336 334 334 334 333 333 332 334 332 322 327 332 334 333 335 333 334 334 334 333 333 332 332 330 326 333 329 323 323 325 324 320 330 334 333 333 332
340 341 340 341 338 339 332 337 338 338 338 337 337 336 336 333 332 334 333 333 335 334 324 331 323 325 328 331 330 332 333 333 333 332 332 331 330 329 328 330 333 331 332 332 319 319 330 333 331 333 332 332
338 339 340 340 339 337 336 338 336 337 335 337 338 337 335 333 334 332 335 329 328 331 332 329 321 322 324 325 325 326 330 329 330 330 328 327 326 326 328 331 330 330 329 330 331 331 330 330 331 332 331 331
337 338 338 339 338 338 336 336 337 337 336 337 337 336 334 335 334 333 333 330 329 331 331 331 332 331 332 332 332 324 331 330 333 329 331 328 325 330 331 330 330 330 329 329 329 329 329 329 330 331 331 330
336 337 337 337 337 337 337 337 336 337 336 336 336 335 335 335 333 332 332 332 331 332 333 331 331 331 332 332 331 329 330 329 330 329 330 329 329 328 329 329 329 329 328 328 327 328 329 328 329 329 329 330
337 336 337 337 337 337 336 336 335 336 336 335 335 335 335 332 332 331 331 331 332 331 332 330 330 330 331 331 331 329 330 330 329 329 328 328 328 327 327 327 328 328 327 327 328 327 327 328 328 328 329 329
337 337 336 337 336 336 334 334 335 334 337 337 335 334 333 329 332 331 330 331 331 331 330 330 331 330 330 331 330 330 329 329 327 327 327 327 327 327 326 326 327 326 326 326 326 327 327 327 327 327 327 328
338 337 337 337 337 335 333 335 334 335 336 336 335 335 334 332 331 331 331 331 330 331 329 330 331 329 329 329 328 329 327 328 326 325 326 325 326 326 325 325 325 325 325 325 325 325 326 326 325 326 326 326
337 337 336 337 337 337 335 335 335 335 334 334 334 334 334 334 332 331 330 331 330 330 330 330 331 330 329 328 328 327 326 325 325 324 324 325 325 325 325 324 324 324 324 324 324 324 324 325 324 324 324 325
337 337 336 337 337 337 336 335 335 335 334 334 334 334 335 334 333 331 332 331 331 330 330 330 330 329 328 328 328 327 326 326 325 324 324 324 324 323 324 323 324 323 322 323 324 324 324 323 324 323 323 324
338 337 337 337 337 337 337 337 335 334 334 332 334 335 334 334 333 331 332 332 332 331 330 330 329 329 328 328 328 327 326 325 324 323 324 325 325 325 324 323 323 324 322 322 323 324 324 324 323 322 323 324
339 339 338 337 337 337 339 337 336 335 334 334 334 335 334 334 333 333 332 332 332 331 330 330 330 329 329 329 328 327 326 326 325 323 322 323 324 323 322 321 322 324 322 321 321 322 323 322 322 322 322 323
338 339 339 338 338 337 338 337 336 335 335 334 334 334 334 333 333 332 332 332 332 332 330 330 330 330 329 329 329 328 326 324 323 321 321 321 321 318 320 320 320 320 320 320 320 321 322 321 321 321 321 322
338 339 339 339 338 337 338 337 337 337 336 335 335 334 333 332 332 333 333 332 331 331 331 329 329 329 329 329 329 327 325 323 323 322 321 320 318 319 318 318 319 319 319 319 319 320 320 320 320 320 320 322
338 338 339 339 333 338 338 337 337 337 337 335 335 334 333 332 332 332 332 332 332 330 330 329 328 329 329 329 328 326 324 323 322 321 321 320 319 317 317 317 317 318 319 319 318 320 319 319 319 319 320 320
337 337 338 338 339 338 338 337 337 337 337 336 336 334 332 331 331 330 330 331 331 330 329 329 329 329 330 329 327 325 324 322 322 321 320 319 319 318 316 316 317 317 318 318 318 319 319 319 318 318 318 319
336 336 337 338 338 338 338 338 337 337 337 336 336 334 332 332 331 330 331 332 332 331 329 329 328 328 328 327 326 325 324 323 322 322 321 319 319 318 317 316 317 317 317 318 317 317 317 318 317 317 317 317
335 335 335 336 337 338 338 338 340 338 336 336 336 336 335 333 332 331 333 333 332 330 329 327 327 327 327 326 325 324 323 323 322 321 320 318 318 319 318 317 318 317 317 316 315 315 314 315 315 316 315 315
333 333 333 332 334 334 334 336 336 338 338 338 336 336 336 336 334 333 332 333 333 332 331 330 328 326 327 326 325 324 323 323 322 321 320 319 319 319 319 317 317 315 313 312 311 310 311 313 313 313 312 312
331 329 331 331 330 330 332 333 335 336 337 337 336 336 337 337 335 334 333 333 333 332 328 329 329 329 328 327 326 325 324 324 323 323 322 321 320 318 317 315 314 314 313 310 308 310 310 310 312 311 310 310
331 332 330 330 330 330 330 331 332 333 335 336 337 337 337 337 336 335 334 332 332 332 331 330 329 330 330 328 325 323 323 323 320 323 322 321 319 318 316 315 316 314 311 308 307 308 310 311 312 311 310 309
332 332 332 331 330 331 331 334 334 334 334 336 336 337 337 337 337 337 335 333 331 331 331 331 331 330 329 326 323 321 321 321 321 322 322 320 318 317 316 315 317 315 312 310 312 310 307 306 307 312 311 311
333 333 333 333 332 333 333 331 333 335 335 335 335 335 336 337 337 337 336 335 333 331 332 331 330 328 327 326 324 322 321 322 321 322 321 320 317 317 315 312 313 314 312 311 311 306 305 308 307 304 309 313
331 331 331 332 333 333 333 333 332 331 331 333 333 333 335 335 336 336 336 336 335 330 330 330 330 328 328 328 327 325 323 322 323 322 322 321 318 316 315 315 313 312 311 310 312 312 309 307 304 304 308 311
329 328 328 328 327 326 325 324 324 324 324 326 326 328 332 334 335 335 335 335 335 335 330 330 330 330 329 328 328 325 324 323 324 322 320 320 319 317 317 316 314 312 311 310 311 312 314 315 312 311 312 309
326 326 326 326 326 325 324 323 325 327 328 328 328 329 329 330 332 332 332 333 334 334 335 333 332 331 330 329 329 328 326 323 321 321 321 321 319 318 316 315 312 313 313 308 310 310 311 311 312 313 310 307
Wind_Speed
7 6 6 6 6 5 6 7 8 9 7 9 10 10 10 9 8 8 7 6 9 9 9 10 8 7 6 8 8 8 9 10 10 10 9 9 8 8 8 8 9 8 8 8 8 7 5 6 7 8 10 3
8 7 6 6 6 6 6 8 8 7 8 8 9 9 9 8 6 7 6 7 11 10 8 8 8 6 6 11 13 12 11 10 9 9 8 7 8 7 7 8 8 8 8 7 7 6 5 4 5 6 9 3
7 8 6 6 6 6 6 6 6 6 8 9 9 9 9 8 8 7 7 7 9 9 8 9 9 10 9 8 8 9 9 9 8 7 7 7 7 7 7 7 8 7 8 7 6 5 3 1 1 4 3 2
8 8 8 6 6 6 6 6 6 7 8 9 9 9 9 9 8 6 6 7 9 9 9 9 7 7 8 8 7 7 8 7 7 6 6 6 6 6 6 8 7 7 7 6 4 3 1 1 3 2 1 1
7 7 9 6 6 7 6 6 6 7 7 7 7 7 8 8 5 6 5 5 6 8 6 6 7 7 7 7 7 7 6 6 6 6 5 5 6 7 8 7 7 6 5 5 3 1 2 3 4 2 1 2
6 6 6 6 6 6 5 5 6 6 5 6 6 6 6 4 4 4 4 5 5 6 7 6 7 6 6 7 7 7 4 5 6 5 5 5 5 4 5 8 4 4 3 3 3 3 5 4 3 1 2 2
5 7 5 6 6 5 5 6 6 5 5 5 5 6 5 3 3 2 3 4 5 6 10 8 7 7 6 7 8 9 9 6 5 5 4 4 2 2 5 5 3 3 3 3 3 3 4 5 1 1 2 2
5 5 5 6 5 5 5 5 5 4 4 4 4 4 4 2 4 3 4 7 9 8 5 5 7 8 8 7 7 9 6 7 7 7 6 3 2 4 5 4 0 2 1 2 3 3 2 2 1 2 3 3
6 6 5 5 5 5 5 5 5 4 4 4 4 4 4 2 4 3 4 5 5 5 5 5 5 5 4 4 4 4 3 3 4 4 3 3 5 5 2 1 1 0 1 1 1 1 2 1 2 3 3 2
6 6 6 6 5 5 5 4 5 4 4 4 4 4 3 3 4 3 4 5 4 4 4 5 5 4 4 4 4 4 3 3 3 3 2 3 4 2 2 1 1 2 2 1 2 1 0 2 2 3 2 3
6 7 6 5 6 6 5 5 5 4 4 4 5 5 4 4 4 4 4 4 4 4 4 4 4 4 3 4 3 4 3 2 2 3 2 3 2 2 1 1 1 2 2 2 2 2 1 2 3 3 3 3
7 7 7 7 5 5 6 5 5 5 4 3 4 5 4 5 4 4 4 4 4 4 4 4 3 3 3 3 3 3 3 3 3 3 2 2 2 2 2 2 2 2 3 2 3 3 3 2 3 4 4 3
7 7 7 7 6 7 6 6 6 5 5 5 4 5 5 5 4 4 4 4 4 4 4 3 3 3 3 3 3 3 3 3 3 3 3 3 3 3 3 3 3 3 3 3 3 3 3 3 4 4 4 4
8 7 7 7 7 7 7 7 6 6 5 5 4 4 5 5 5 4 4 4 4 4 4 4 4 3 3 3 3 3 3 3 3 3 3 3 3 3 3 3 3 2 3 4 4 3 4 4 4 4 4 5
8 8 8 7 7 7 6 7 7 6 6 5 5 5 5 5 5 4 4 4 4 4 4 4 4 4 4 4 4 4 3 3 3 3 3 3 3 3 3 3 3 3 4 4 4 4 5 4 4 4 4 4
8 8 7 7 7 6 6 6 7 6 6 6 6 6 6 7 5 5 4 4 4 4 4 4 4 4 4 4 4 4 4 3 3 3 3 3 3 3 3 3 3 4 4 5 5 5 5 5 5 5 5 5
9 8 8 7 7 7 6 6 6 7 7 6 7 6 7 6 7 6 5 4 5 5 4 4 4 4 4 4 4 4 4 4 3 3 3 3 4 4 4 5 5 4 5 5 5 5 5 5 6 6 5 5
9 9 8 7 7 7 7 7 7 7 7 7 7 7 8 8 8 8 5 5 5 5 5 5 5 5 5 4 4 4 4 4 4 4 4 4 4 5 5 6 6 6 6 6 6 6 6 6 6 6 6 6
10 9 9 8 8 8 8 8 7 7 7 6 6 7 7 8 9 9 8 7 7 6 5 5 5 5 5 4 4 4 4 4 4 4 5 4 5 5 5 6 6 6 7 7 7 6 5 6 6 6 6 6
11 10 9 8 7 8 8 7 7 7 7 6 6 6 5 6 8 7 8 8 7 7 7 5 5 5 5 5 4 4 4 4 5 5 5 5 5 5 6 6 7 6 7 7 7 6 6 6 6 6 6 6
11 10 10 10 8 9 8 7 8 6 5 6 5 4 7 7 8 8 7 8 8 8 8 6 5 5 5 5 4 4 5 5 5 5 5 6 6 6 6 7 8 7 7 6 7 6 6 5 5 6 6 6
10 10 10 9 9 9 10 9 8 8 8 7 5 5 7 8 8 8 8 9 9 8 7 5 5 6 6 6 6 6 6 6 6 6 6 6 6 7 7 7 8 8 7 5 4 5 6 6 6 6 6 5
10 10 10 9 10 9 10 9 7 8 10 9 9 9 8 8 7 8 9 9 9 9 6 6 6 5 5 5 6 6 7 7 7 7 7 8 7 7 8 7 7 6 4 3 3 5 7 7 8 6 5 5
9 8 8 9 9 10 10 10 9 9 8 6 7 7 8 8 8 8 7 8 8 8 8 8 6 6 7 8 8 8 9 8 8 9 9 9 8 8 7 6 6 3 2 3 5 7 7 8 8 9 6 7
9 9 9 9 9 9 9 9 9 9 10 10 9 6 7 7 7 5 6 8 9 8 8 8 7 8 9 8 8 8 8 8 8 7 7 7 7 8 8 6 6 5 3 4 6 7 10 10 9 10 10 11
9 8 8 7 8 8 7 7 8 8 8 8 8 9 8 8 9 9 10 8 9 9 9 9 8 9 10 8 6 5 5 6 7 8 8 6 6 6 8 7 5 5 5 5 7 6 6 7 7 9 9 11
8 8 8 7 6 6 6 6 6 6 6 6 7 9 10 10 9 8 7 6 7 8 9 10 9 9 6 5 4 5 6 7 9 9 9 8 7 6 6 7 5 6 8 6 5 5 4 7 7 5 6 8
7 7 7 7 7 5 5 4 4 6 6 6 7 8 8 9 8 9 9 10 9 8 8 8 8 6 6 7 6 7 8 8 9 9 8 8 8 7 7 5 7 7 8 7 4 5 5 3 2 9 5 6
7 6 6 6 5 5 5 5 4 5 6 7 7 7 6 7 8 9 9 9 8 7 8 7 7 7 7 8 8 8 8 10 10 9 7 6 6 8 9 7 6 6 8 9 9 8 3 3 3 6 8 7
7 7 8 8 7 8 8 8 7 8 8 6 7 7 6 7 7 7 8 9 9 8 7 8 8 8 7 7 6 4 6 5 4 5 6 7 8 10 10 8 5 7 6 10 11 12 10 8 8 6 1 4
7 7 8 9 9 8 8 7 6 5 5 6 5 5 6 6 6 7 8 8 7 8 6 7 8 9 8 8 7 7 7 8 8 8 9 9 9 9 7 7 9 10 6 4 8 9 11 10 9 7 5 7
Wind_Direction
94 84 72 86 85 82 89 95 64 54 87 115 124 117 110 104 96 100 94 92 65 52 102 100 89 77 82 103 106 109 97 88 82 80 83 84 84 86 84 86 92 88 84 78 69 59 36 20 13 358 336 67
110 90 87 88 90 90 86 87 81 75 82 91 99 101 102 100 83 81 85 79 64 53 55 102 106 102 64 75 72 78 83 85 82 80 82 85 84 83 83 80 82 77 75 70 58 55 44 39 8 350 327 37
122 113 100 99 98 96 96 91 92 93 95 102 106 106 104 96 89 80 85 76 71 58 60 81 75 75 75 77 94 87 90 89 90 90 86 88 86 87 88 88 78 74 71 61 57 37 53 91 313 332 326 59
146 123 116 107 94 95 100 96 95 98 98 104 109 111 115 112 113 117 101 107 90 77 65 60 75 79 87 92 89 88 91 93 93 92 92 93 99 96 95 88 85 83 83 79 65 48 357 280 250 223 88 71
147 125 125 115 94 98 102 108 109 110 116 114 119 129 130 153 157 134 136 165 120 113 81 69 71 74 69 71 70 80 82 93 97 96 100 101 99 87 92 89 76 63 64 64 48 354 337 313 253 292 113 204
143 146 176 162 160 166 142 135 141 161 163 160 141 141 164 180 148 144 153 110 140 130 136 100 86 81 77 66 61 62 86 102 99 97 96 89 87 116 129 157 161 129 94 54 14 335 308 262 242 234 220 239
166 160 180 175 170 164 188 164 193 191 176 186 166 180 195 196 142 132 125 104 68 78 70 94 95 86 77 72 77 71 65 68 96 93 81 87 136 147 209 221 231 124 164 155 188 249 239 249 277 164 286 269
183 177 185 183 177 182 184 172 199 199 186 193 180 190 208 184 114 155 111 100 118 123 140 113 104 104 101 102 103 119 111 102 87 103 95 110 180 205 220 228 189 139 194 178 186 205 238 267 360 305 229 254
193 185 190 188 180 193 192 178 190 193 194 191 187 199 214 130 133 187 137 162 164 195 167 158 159 163 180 166 158 210 194 181 147 220 156 168 215 228 213 276 251 286 186 256 245 265 313 329 319 293 300 278
189 183 199 193 187 193 208 196 186 201 188 186 192 197 214 159 167 193 157 165 175 198 173 175 177 186 184 160 153 201 195 199 161 220 184 198 217 238 234 259 297 297 326 323 295 283 82 307 288 278 299 295
189 200 199 200 195 194 204 205 207 192 203 195 182 198 194 196 182 190 179 174 186 194 187 191 191 186 179 168 183 195 214 181 199 224 211 218 223 247 267 267 292 271 298 310 308 305 319 276 289 292 283 285
201 199 206 204 198 208 203 208 212 215 195 194 187 197 200 209 196 193 194 181 188 194 202 198 194 194 178 185 193 193 214 179 213 209 232 231 236 244 242 241 246 248 238 251 258 276 273 266 271 266 275 278
204 207 209 205 204 210 207 215 217 219 211 199 205 197 215 209 213 202 201 191 193 196 201 196 193 199 196 192 196 187 209 199 205 215 223 221 225 224 233 224 218 238 247 249 241 245 249 250 254 265 272 275
206 209 211 214 207 209 205 220 222 222 225 225 199 202 208 215 227 217 210 195 203 199 197 201 187 205 210 195 201 190 209 201 213 213 211 225 228 230 238 246 238 236 239 239 255 244 248 240 253 252 252 255
208 206 215 218 218 209 207 219 222 222 229 234 232 222 196 221 230 234 224 213 203 204 201 201 199 207 205 206 201 198 207 196 214 217 221 212 222 223 229 234 232 228 251 242 238 237 238 243 245 251 257 257
214 210 211 218 222 219 204 213 227 226 225 226 236 234 220 222 224 233 230 225 212 219 206 209 208 208 210 210 202 198 205 191 207 222 224 214 233 253 245 245 237 231 247 246 241 237 231 234 243 244 240 242
212 215 212 214 223 221 209 205 219 229 224 223 232 235 235 228 228 225 235 219 222 217 223 219 216 214 213 214 208 198 197 193 201 217 220 212 218 231 239 243 239 229 244 252 249 238 229 233 233 235 241 237
214 217 214 208 219 226 219 218 213 220 228 227 229 224 226 226 228 227 231 242 221 222 226 224 220 222 217 216 213 199 185 196 207 220 215 222 212 227 230 233 232 229 227 235 240 235 230 231 234 234 231 233
217 219 218 212 213 220 224 224 223 217 218 224 225 228 222 224 232 234 232 232 240 232 235 228 225 219 223 217 203 198 200 207 216 216 221 217 227 230 230 242 242 236 238 235 235 235 229 231 235 235 237 236
215 219 223 223 216 218 219 224 227 228 219 218 222 221 226 221 228 238 235 238 236 243 239 235 232 227 223 211 191 199 207 218 224 215 220 224 222 235 238 241 243 236 239 243 245 236 236 238 235 239 234 236
218 219 222 225 221 221 218 220 224 230 234 223 215 191 215 214 217 220 232 241 242 242 242 239 236 239 236 213 202 208 215 218 228 228 216 224 219 227 243 241 245 245 243 244 247 248 244 242 247 247 244 240
212 222 225 225 225 221 221 217 226 227 224 225 213 197 210 213 206 205 215 228 235 241 237 234 230 233 217 206 214 218 219 225 225 228 220 223 220 222 234 245 246 244 240 244 253 258 254 247 244 248 250 253
215 218 224 227 230 230 228 223 220 227 233 229 226 220 214 200 206 210 225 232 235 238 227 225 229 230 217 213 219 222 223 224 222 222 221 225 230 226 230 239 247 253 249 238 245 254 259 259 250 248 245 254
213 216 219 224 225 232 234 235 229 223 225 228 229 226 226 223 215 219 216 226 231 230 242 245 232 219 220 216 215 216 220 219 212 210 217 226 230 234 230 228 240 229 238 271 270 270 266 256 253 246 242 241
208 210 215 221 226 229 230 230 231 230 227 226 227 225 219 211 214 211 213 214 217 223 218 223 224 223 225 215 217 223 223 217 219 218 219 225 219 228 231 225 222 227 215 267 272 253 251 249 239 240 236 239
208 211 216 219 221 227 233 226 222 234 234 226 220 223 227 223 225 218 221 217 211 217 222 232 232 235 238 232 212 212 224 231 229 232 224 214 225 212 224 238 208 204 165 233 243 271 272 258 247 228 222 230
207 210 218 223 226 222 231 239 251 245 239 234 233 229 228 233 227 212 216 205 207 216 218 223 225 229 211 185 196 222 231 233 234 226 222 215 220 229 218 234 229 208 184 236 236 246 288 279 297 263 226 221
215 219 220 221 237 237 241 250 251 251 258 252 234 231 229 234 236 230 233 225 211 215 221 223 225 225 218 218 193 209 224 230 230 220 220 214 213 221 243 207 227 208 201 213 215 262 212 279 313 297 261 265
204 221 220 220 220 238 248 250 249 239 239 238 244 257 258 255 243 239 236 229 219 218 224 228 234 236 235 235 230 218 223 228 224 211 210 207 215 218 228 233 228 216 206 216 212 233 263 246 244 230 274 295
187 200 209 207 212 215 222 230 228 232 243 246 241 240 236 245 255 259 252 248 242 225 208 227 223 226 233 234 234 232 234 253 270 249 230 218 218 226 226 241 229 243 202 211 216 224 235 243 262 283 299 24
180 194 206 213 216 221 226 231 238 244 248 255 259 260 256 262 262 257 265 272 272 270 237 215 223 226 229 231 228 221 227 234 234 238 231 224 209 213 205 205 240 241 238 202 228 225 236 249 258 265 272 256